Regional Weather Roundup
Issued by NWS

Home | Current Version | Previous Version | Text Only | Print | Product List | Glossary Off
Versions: 1 2 3 4 5 6 7 8 9 10 11 12 13 14 15 16 17 18 19 20 21 22 23 24 25 26 27 28 29 30 31 32 33 34 35 36 37 38 39 40 41 42 43 44 45 46 47 48 49 50

000
ASUS43 KLMK 190510
RWRKY
KENTUCKY REGIONAL WEATHER ROUNDUP
NATIONAL WEATHER SERVICE LOUISVILLE KY
1200 AM EST THU JAN 19 2017

NOTE "FAIR" INDICATES FEW OR NO CLOUDS BELOW 12,000 FEET
WITH NO SIGNIFICANT WEATHER AND/OR OBSTRUCTIONS TO VISIBILITY.

KYZ001>023-026-027-061>063-070>075-190600-
WESTERN AND SOUTH CENTRAL KENTUCKY

CITY           SKY/WX    TMP DP  RH WIND       PRES   REMARKS
PADUCAH        CLOUDY    45  40  82 SE5       30.08S
HENDERSON      MOCLDY    39  36  87 E5        30.10F
OWENSBORO      MOCLDY    40  36  86 NE6       30.12F
HOPKINSVILLE   CLOUDY    45  41  86 SE3       30.08F
BOWLING GREEN  CLOUDY    44  40  85 NE5       30.11F
GLASGOW        MOCLDY    41  41 100 CALM      30.11S
$$

KYZ024-025-028>034-038-045-046-053-190600-
NORTH CENTRAL KENTUCKY

CITY           SKY/WX    TMP DP  RH WIND       PRES   REMARKS
LOUISVILLE/SDF CLOUDY    41  35  79 CALM      30.14R
LOUISVILLE/LOU CLOUDY    39  35  86 CALM      30.14S
FORT KNOX      CLOUDY    38  36  93 CALM      30.11R
$$

KYZ035>037-039>044-047>052-055>060-089>105-190600-
NORTHEAST KENTUCKY

CITY           SKY/WX    TMP DP  RH WIND       PRES   REMARKS
LEXINGTON      PTCLDY    37  34  89 CALM      30.12F
COVINGTON      CLOUDY    39  37  92 SE5       30.11F
FRANKFORT      PTCLDY    34  32  92 CALM      30.12F
$$

KYZ054-064>069-076>088-106>120-190600-
SOUTHEAST KENTUCKY

CITY           SKY/WX    TMP DP  RH WIND       PRES   REMARKS
JACKSON        CLOUDY    39  36  89 E3        30.12F
LONDON         PTCLDY    38  35  89 CALM      30.11F
SOMERSET       PTCLDY    37  37 100 CALM      30.13S
MIDDLESBORO    CLOUDY    40  39  99 CALM      30.13F
MONTICELLO     CLOUDY    39  38  96 NE12      30.13S WCI  32
$$




USA.gov is the U.S. government's official web portal to all federal, state and local government web resources and services.